Погода в Газанджыке

Погода в Газанджыке : погода сейчас, прогноз погоды и архив. Всё, что Вы хотите узнать о погоде в Газанджыке!

Поиск расширенной информации на нашем сайте:

Другие новости

Новости СМИ2

Главная страница сайта

Новости сайта

03.07.2017

Напоминаем, что на нашем специализированном сайте Метеоцентр.Азия вы можете получить высокодетализированные автоматические прогнозы погоды по пунктам России, СНГ и мира в авиационном формате (включающие направление и скорость ветра, видимость, явления погоды, количество и форму облачности, нижнюю и верхнюю границу облачности).


Погода в Газанджыке - сегодня

Время (UTC), дата Ветер
(°,м/с) 
Видим.   Явления Облачность Т
(°С)
Тd
(°С)
f(%) Тe
(°С)
Pmin
(гПа)
dP
(гПа)
Po
(мм)
O2
(г/м3)
Тmin Tmax R s Состояние
почвы
21 21.11.17 290 (З) 10 км    ясно 
+10.2 -0.2 48 +11  1004.6  -1.5  750  291           
00 22.11.17 290 (З) 10 км    5/0 верхняя 
[Ci sp]
+9 +0 53 +10  1003.4  -1.2  749  292           
03 22.11.17 260 (З) 20000 м    8/0 средняя 
[Ac As]
+9.6 -0.2 50 +10  1003.1  -0.3  749  292           
06 22.11.17 270 (З) 20000 м    9/0 средняя 
[Ac As]
+14.1 +0 38 +15  1003.1  749  287  +8         
09 22.11.17 240 (ЮЗ) 20000 м    8/3 1000 м средняя 
[Cu Sc|Ac und]
+22.5 +2.1 26 +23  1002.3  -0.7  749  278           
12 22.11.17 290 (З) 20000 м    9/3 1000 м средняя, верхняя 
[Cu hum|Ac und|Cs]
+23.6 +5.6 31 +24  1001.8  -0.4  748  277           
15 22.11.17 310 (СЗ) 10 км    3/0 средняя 
[Ac cast]
+20.6 +5.8 38 +21  1004.1  2.2  750  280    +24.4       
18 22.11.17 310 (СЗ) 10 км    ясно 
+16.2 -0.7 32 +16  1006.4  2.2  752  286    +24.4       
21 22.11.17 230 (ЮЗ) 10 км    3/3 1000 м 
[Sc]
+12.9 +10.2 84 +15  1008.4  753  288           
00 23.11.17 320 (СЗ) 10 км    8/8 1000 м 
[Sc]
+12.4 +8.4 77 +14  1009.3  0.9  754  289           
03 23.11.17 090 (В) 20000 м    9/9 1000 м 
[Sc]
+11.3 +6.8 74 +12  1009.9  0.6  754  291           
06 23.11.17 010 (С) 20000 м    6/0 средняя 
[Ac As]
+11.7 +6.2 69 +12  1011  755  291  +11.2         
09 23.11.17 320 (СЗ) 20000 м    9/9 1000 м 
[Cu Sc]
+13.1 +5.9 62 +14  1011.1  0.2  755  289           
12 23.11.17 110 (В) 20000 м    9/9 1000 м 
[Sc]
+12.9 +5.6 61 +13  1011.8  0.7  756  290           
15 23.11.17 тихо ()   10 км    9/9 1000 м 
[Sc]
+11.4 +6.5 72 +11  1012.8  0.9  756  292    +13.6       
18 23.11.17 310 (СЗ) 10 км    3/3 1000 м 
[Cu Sc]
+9.5 +7.1 85 +10  1013.7  0.9  757  294    +13.6       
21 23.11.17 110 (В) 10 км    8/8 1000 м 
[Cu Sc]
+8.8 +6.7 87 +10  1014.9  1.2  758  295           
00 24.11.17 100 (В) 10 км    9/0 средняя 
[Ac As]
+8.2 +5.8 85 +8  1015.4  0.5  758  296           
03 24.11.17 090 (В) 20000 м    9/9 300 м средняя 
[As op]
+7.4 +6.1 91 +7  1015.7  0.2  759  297           
06 24.11.17 100 (В) 20000 м    9/9 1000 м 
[Sc]
+10.3 +7.4 82 +9  1017.2  1.6  760  294  +7         
09 24.11.17 050 (СВ) 20000 м    8/0 средняя 
[Ac As]
+11.3 +4.6 63 +10  1015.3  -1.9  758  293           
12 24.11.17 040 (СВ) 20000 м    10/10 1000 м 
[Sc]
+10.8 +4.1 63 +10  1015.4  0.1  758  293           
15 24.11.17 030 (СВ) 10 км    10/10 600 м 
[Sc]
+9.4 +5 74 +9  1017.3  1.9  760  295    +12.2       
18 24.11.17 090 (В) 10 км    10/10 600 м 
[Sc]
+8 +5.6 85 +7  1018  0.7  760  297    +12.2       
21 24.11.17 030 (СВ) 10 км  слаб. дождь  10/10 300 м 
[Frnb|Ns]
+6.8 +6.4 97 +8  1018  760  298           
Время (UTC), дата Ветер
(°,м/с) 
Видим.   Явления Облачность Т
(°С)
Тd
(°С)
f(%) Тe
(°С)
Pmin
(гПа)
dP
(гПа)
Po
(мм)
O2
(г/м3)
Тmin Tmax R s Состояние
почвы

Для получения пояснительной информации подведите курсор к названию столбца.

ПОГОДА в Газанджыке - архив

Всё, что Вы хотите узнать о погоде в Газанджыке - удобно и подробно!

Выберите нужную дату (начиная с 1 января 2015* года) и нажмите кнопку "Найти".
Будут отображены архивные сводки погоды по пункту Газанджык, начиная с указанной даты.


Отображать данные в формате CSV (для использования в таблицах Excel)


Внимание! Наш архив погоды предназначен исключительно для личного некоммерческого использования в познавательных целях. Если Вам необходимы официальные справки о состоянии погоды (для производственных, юридических, коммерческих и т.п. целей), обращайтесь в органы Росгидромета.

*Примечание: данная дата относится к архиву по метеостанциям СССР (Россия, СНГ, Балтия).
Архив по метеостанциям Зарубежной Европы и Азии (кроме Китая) хранится 10 дней, по другим регионам земного шара (Китай, Африка, Америка, Австралия, Океания) - 1 день.

Газанджык - район местоположения метеостанции


Название, широта, долгота, высота метеостанции:
Газанджык 39.2°ш. 55.5°д. 31 м над ур. моря [Туркменистан]

Дополнительная информация

В oтличие oт бoльшинства пoгoдных сайтoв мы публикуем пoдрoбную метеoинфoрмацию в детальнoм прoфессиoнальнoм фoрмате.

Характеристики температуры и влажнoсти вoздуха измеряются на высoте 2 м в тени вдали oт зданий и деревьев.
Скoрoсть ветра измеряется на высoте 10 м (на урoвне рoста челoвека скoрoсть ветра ниже в 1.5-2 раза). Если метеoстанция нахoдится в гoрoде или в лесу, тo скoрoсть ветра занижена на 2-4 м/с пo сравнению с oткрытым местoм. Скoрoсть ветра над акватoриями крупных рек и oзёр, а также на вершинах хoлмoв на 2-5 м/с выше, чем в oбычных услoвиях.
Атмoсфернoе давление в разных тoчках местнoсти мoжет значительнo oтличаться oт давления на метеoстанции, в зависимoсти oт услoвий рельефа (при пoдъёме на 10 м давление пoнижается примернo на 1 мм рт.ст.).